Tracking 28126 objects as of 1-Oct-2023
HD Live streaming from Space Station
objects crossing your sky now

STARLINK-2010

Track STARLINK-2010 now!
10-day predictions
STARLINK-2010 is classified as:


NORAD ID: 47634
Int'l Code: 2021-012Q
Perigee: 553.2 km
Apogee: 555.4 km
Inclination: 53.1 °
Period: 95.6 minutes
Semi major axis: 6925 km
RCS: Unknown
Launch date: February 16, 2021
Source: United States (US)
Launch site: AIR FORCE EASTERN TEST RANGE (AFETR)
Your satellite tracking list
Your tracking list is empty




NASA's NSSDC Master Catalog

Two Line Element Set (TLE):
1 47634U 21012Q   23273.76322541  .00005861  00000-0  41201-3 0  9998
2 47634  53.0527 111.1440 0001595  88.0079 272.1092 15.06405100145186
Source of the keplerian elements: AFSPC